[Date Prev][Date Next][Thread Prev][Thread Next] - [Date Index][Thread Index][Author Index]
2 Line ISS Keps 5-4
- Subject: [sarex] 2 Line ISS Keps 5-4
- From: "Dave Larsen PhD" <doc@xxxxxxxxxxx>
- Date: Sun, 4 May 2003 02:26:38 -0700
ISS
1 25544U 98067A 03124.33715031 -.00153247 00000-0 -19664-2 0 9681
2 25544 51.6322 240.5730 0006140 81.3803 22.5792 15.58909184254161
----
Via the sarex mailing list at AMSAT.ORG courtesy of AMSAT-NA.
To unsubscribe, send "unsubscribe sarex" to Majordomo@amsat.org
AMSAT Home